Wind_Speed
78 79 79 80 80 80 80 80 80 80 80 79 79 79 79 79 79 79 79 79 78 76 75 73 71 69 67 65 63 62 61 61 60 60 59 58 59 57 54 52 52 52
81 80 79 78 78 78 79 79 80 81 82 83 83 83 83 83 82 82 81 81 80 78 76 75 73 71 69 67 65 64 63 62 61 61 60 59 59 58 55 52 52 52
74 72 71 71 71 71 73 74 76 77 78 80 81 83 84 85 85 86 86 85 84 82 79 77 75 73 71 69 68 66 65 64 63 62 61 60 60 59 56 53 52 52
67 68 68 69 70 70 71 73 75 76 77 77 78 79 80 82 83 84 86 87 87 86 83 80 77 75 73 71 70 69 67 65 64 63 61 60 61 60 57 54 52 52
67 69 71 72 73 74 75 75 76 77 78 78 79 79 80 80 80 80 81 83 84 85 85 83 80 76 74 73 72 70 68 66 65 64 62 61 61 60 58 54 52 52
70 72 74 75 76 78 79 79 79 79 79 79 78 78 79 80 80 80 79 79 80 81 82 83 81 77 75 74 72 71 69 68 66 65 63 62 61 61 59 55 52 52
76 77 78 80 81 81 82 81 81 81 80 78 77 76 76 77 78 79 78 77 78 78 78 79 79 76 74 74 72 71 69 69 68 66 64 62 62 61 59 56 53 51
81 83 84 84 85 84 83 82 81 80 78 77 75 73 72 72 73 75 76 76 75 75 76 76 76 74 73 73 72 70 69 69 68 67 65 63 61 60 58 55 53 52
85 86 87 87 86 85 83 82 80 78 76 74 72 71 70 69 69 70 72 73 73 72 73 73 73 72 71 71 71 69 68 68 68 66 64 62 61 60 58 55 53 51
87 87 88 87 85 83 81 79 78 76 74 72 70 69 68 67 67 67 67 69 70 70 70 70 70 69 70 70 69 68 67 67 67 66 63 62 60 59 57 55 53 51
87 87 86 84 82 80 78 76 75 73 72 71 70 69 67 66 65 64 64 64 67 67 67 67 66 67 69 68 67 67 66 66 65 64 62 60 60 58 56 55 53 51
87 85 83 81 80 78 76 74 73 72 70 69 69 69 68 67 65 64 62 61 62 64 65 64 64 66 68 67 66 65 65 64 63 61 60 59 59 57 56 55 53 51
87 85 83 80 79 78 76 73 72 71 70 68 68 67 67 66 65 63 61 59 59 61 62 61 61 64 65 64 63 64 64 63 61 59 58 58 57 56 55 55 53 51
87 84 81 79 77 77 75 72 71 70 68 67 66 65 65 65 64 62 60 58 57 57 58 59 60 61 62 63 62 62 62 61 58 57 56 56 56 55 55 55 53 50
85 82 80 78 75 74 73 72 71 69 67 66 64 63 62 62 62 60 58 57 54 53 55 58 60 60 60 62 61 59 59 59 57 55 55 55 55 55 54 54 52 50
82 79 78 76 75 73 72 70 69 67 66 64 63 61 60 60 58 56 57 56 50 50 53 56 59 58 57 58 59 56 55 55 55 54 53 54 54 53 53 52 51 49
80 78 76 74 73 72 71 69 67 65 64 63 61 59 58 57 54 53 54 52 47 48 51 54 57 56 54 55 56 55 53 53 54 53 52 53 53 52 52 52 50 49
77 76 74 73 71 70 69 68 66 64 62 61 59 57 56 54 52 51 51 50 45 46 49 52 55 55 55 54 53 53 52 51 52 52 52 52 52 51 51 51 50 49
75 74 73 71 70 69 68 66 64 62 60 59 58 56 54 52 50 50 50 49 46 46 49 50 52 55 57 56 52 52 53 51 49 50 51 51 50 50 50 50 50 49
75 74 72 71 70 68 66 65 63 60 58 57 56 55 53 51 50 50 51 50 47 46 49 50 50 51 56 57 53 52 53 51 47 47 49 49 49 49 49 49 49 48
75 74 72 71 69 68 65 63 61 59 57 55 54 52 51 49 49 51 51 50 47 45 46 49 49 49 51 54 53 52 52 50 45 44 47 48 47 48 47 47 48 47
74 73 71 70 68 67 64 61 58 57 55 55 53 50 48 48 49 51 51 49 47 44 43 45 48 49 48 50 52 51 50 47 42 41 44 44 45 46 46 46 47 46
72 72 70 68 66 65 62 59 56 54 53 53 52 49 46 47 50 52 51 48 46 43 41 42 45 46 47 47 49 49 48 45 40 39 42 42 43 45 46 46 45 45
71 70 69 67 65 62 59 56 53 51 51 50 50 48 46 47 50 51 48 45 43 42 41 40 41 43 45 44 44 46 47 44 39 38 40 41 42 43 45 45 44 43
69 68 67 66 63 60 57 54 51 49 48 47 47 46 44 46 50 49 45 41 39 39 38 37 38 40 41 40 41 43 45 43 38 38 39 41 41 42 42 43 43 43
68 67 65 64 62 58 54 52 49 47 46 45 44 43 43 45 47 44 40 37 35 34 34 34 37 38 36 37 40 42 41 39 37 37 39 40 41 40 40 41 42 42
Wind_Direction
301 300 299 298 297 295 294 293 292 291 290 289 287 286 285 284 284 283 283 282 282 282 282 282 282 281 280 279 279 278 278 278 279 280 281 283 285 285 284 281 277 275
300 299 298 297 297 296 294 293 292 291 289 288 287 286 285 284 283 283 282 282 281 281 281 281 280 280 279 278 278 277 277 277 277 278 279 281 283 283 282 280 277 274
302 301 301 300 299 298 297 296 295 293 292 290 288 287 285 284 282 281 281 280 280 279 279 279 279 278 278 277 276 276 275 275 275 276 277 278 280 281 280 278 276 274
305 304 304 303 302 301 299 299 298 296 294 292 291 289 287 285 284 282 281 279 279 278 277 277 276 276 276 275 275 274 273 273 273 274 275 276 278 278 278 276 275 273
305 305 304 304 303 302 301 300 299 298 296 295 292 290 288 286 284 283 281 280 279 277 276 276 275 274 273 273 272 271 271 271 271 272 272 273 275 276 275 274 273 271
306 305 305 304 304 304 303 303 302 300 299 297 294 291 288 286 284 282 281 279 278 277 276 275 274 273 271 270 269 269 268 268 268 269 270 271 272 273 273 272 271 269
308 307 307 306 306 305 305 304 303 302 300 298 295 292 289 286 284 282 280 278 277 276 275 274 273 272 270 268 267 266 266 266 266 267 267 268 269 270 271 270 268 268
310 309 308 307 307 306 305 304 303 302 300 298 296 293 291 288 285 282 280 278 276 274 273 273 272 271 269 267 266 265 264 264 265 265 265 265 266 267 268 267 266 266
310 309 309 308 307 307 306 305 303 302 300 298 296 295 293 291 287 284 281 278 276 273 271 271 270 269 268 266 265 264 263 262 263 264 264 264 264 265 265 265 264 264
311 310 309 308 308 307 306 305 303 302 300 299 298 297 295 293 291 287 283 279 276 272 269 268 268 268 267 266 264 263 262 262 262 263 263 263 262 262 263 263 262 262
310 309 309 308 307 306 305 304 302 302 301 301 300 299 298 296 294 291 286 281 275 271 267 265 265 265 265 265 264 263 262 262 262 262 262 262 261 260 261 261 260 260
310 309 308 307 306 305 304 304 303 303 302 302 301 301 300 299 297 295 291 284 276 269 265 262 262 263 264 264 264 263 262 261 261 261 261 260 259 259 259 259 258 258
310 309 308 308 307 305 305 305 304 303 303 302 302 302 301 300 299 298 294 287 277 268 262 260 259 261 262 263 263 262 261 261 261 260 260 259 258 258 258 257 256 257
311 310 309 308 307 306 305 304 303 302 302 302 302 302 301 301 300 299 296 289 277 265 258 257 257 257 260 262 263 261 261 260 260 259 259 258 257 257 257 256 256 255
311 310 308 307 306 305 304 304 303 302 302 301 302 302 301 300 300 300 299 293 278 262 256 255 255 256 258 261 262 261 259 258 258 257 256 256 255 256 256 255 255 254
310 308 307 306 305 304 303 302 302 301 301 301 301 302 301 299 298 299 300 296 279 259 256 255 254 255 257 259 261 260 256 255 256 255 254 253 253 255 255 254 253 253
308 307 306 305 304 304 303 302 301 300 300 300 301 301 300 297 296 297 300 297 279 260 258 258 254 254 254 255 259 258 253 253 255 254 253 251 252 254 255 254 252 252
307 306 305 305 304 303 302 301 300 299 299 299 300 300 299 296 295 296 298 297 282 264 261 260 256 254 252 252 256 256 251 251 254 253 251 250 251 253 254 253 251 251
306 306 305 304 304 303 302 301 300 298 298 298 298 299 297 294 294 294 294 295 287 269 261 261 258 255 252 250 253 254 249 249 252 252 249 250 251 251 252 251 250 249
307 306 305 305 304 303 302 301 300 298 296 296 296 297 295 292 292 294 292 291 289 276 263 259 258 257 255 250 249 252 249 247 250 250 248 250 250 249 250 250 248 247
307 306 306 305 304 303 303 301 299 297 295 295 295 295 294 290 290 294 292 287 287 281 268 259 255 255 256 252 248 249 249 246 248 248 247 249 249 248 248 247 245 246
307 306 305 304 304 303 303 301 299 297 295 294 296 295 292 289 290 294 293 285 282 280 272 263 256 254 256 252 246 247 248 245 247 247 246 247 247 246 245 244 244 245
306 305 304 304 303 303 302 301 298 296 294 294 296 295 291 289 292 295 292 285 280 277 271 265 259 256 257 252 245 245 245 243 245 247 245 244 245 244 244 243 242 243
306 305 304 303 303 302 302 300 297 295 293 293 295 295 291 290 294 296 291 284 278 272 269 265 259 256 257 252 245 244 244 242 244 246 244 243 243 242 242 242 241 241
307 306 305 304 303 302 301 299 297 294 292 293 294 293 290 291 295 296 290 283 276 269 267 265 258 254 255 251 243 243 243 241 243 244 242 241 241 240 240 240 240 241
308 306 305 304 303 303 301 299 297 294 292 293 293 290 288 292 296 295 288 281 273 266 264 264 257 252 252 247 241 242 243 239 239 241 240 239 239 239 238 238 239 241
Height
5494 5489 5485 5480 5476 5471 5467 5463 5459 5454 5451 5449 5446 5443 5440 5437 5434 5431 5428 5426 5423 5422 5421 5419 5418 5417 5415 5413 5412 5411 5410 5409 5407 5405 5403 5401 5398 5396 5395 5393 5392 5392
5483 5478 5474 5469 5464 5459 5454 5450 5447 5443 5438 5435 5432 5429 5426 5424 5421 5419 5415 5413 5411 5410 5409 5408 5407 5406 5405 5403 5401 5401 5400 5400 5399 5396 5394 5393 5390 5388 5387 5386 5384 5384
5471 5467 5462 5459 5455 5450 5444 5439 5435 5431 5427 5423 5419 5415 5412 5409 5407 5405 5402 5400 5398 5397 5397 5396 5395 5394 5394 5393 5391 5391 5390 5390 5389 5388 5386 5384 5382 5380 5379 5378 5377 5376
5462 5457 5452 5448 5444 5440 5436 5431 5424 5418 5414 5411 5407 5403 5399 5395 5393 5390 5387 5385 5384 5383 5383 5383 5383 5382 5382 5382 5381 5380 5380 5380 5379 5378 5377 5376 5373 5372 5371 5370 5370 5369
5454 5448 5443 5438 5433 5428 5424 5420 5414 5408 5402 5398 5394 5390 5386 5382 5379 5376 5373 5371 5369 5368 5368 5369 5370 5370 5370 5370 5370 5370 5370 5369 5369 5368 5368 5367 5365 5363 5362 5362 5362 5361
5445 5439 5434 5429 5424 5418 5412 5406 5401 5396 5390 5385 5381 5377 5372 5369 5365 5362 5359 5357 5355 5354 5354 5354 5355 5356 5357 5357 5358 5359 5359 5359 5359 5358 5358 5358 5357 5355 5354 5354 5354 5354
5432 5427 5421 5416 5411 5406 5401 5394 5388 5383 5377 5372 5368 5364 5359 5355 5352 5348 5346 5344 5342 5341 5340 5340 5341 5343 5344 5344 5345 5347 5348 5348 5348 5348 5348 5348 5347 5347 5346 5346 5346 5347
5419 5413 5408 5403 5398 5392 5387 5382 5376 5370 5364 5359 5355 5350 5346 5343 5339 5335 5332 5331 5329 5328 5327 5327 5328 5329 5330 5331 5333 5335 5336 5337 5337 5337 5338 5338 5338 5338 5338 5338 5339 5339
5407 5401 5395 5389 5384 5378 5373 5368 5362 5357 5352 5347 5342 5338 5334 5330 5326 5323 5319 5317 5316 5315 5314 5315 5316 5317 5317 5319 5320 5323 5325 5326 5326 5327 5327 5328 5329 5329 5330 5330 5331 5331
5394 5388 5381 5375 5370 5364 5359 5354 5349 5344 5339 5334 5330 5325 5322 5318 5314 5310 5307 5304 5303 5302 5302 5303 5304 5305 5305 5307 5309 5311 5313 5314 5315 5316 5318 5319 5319 5320 5321 5322 5323 5324
5383 5376 5369 5363 5357 5351 5346 5341 5336 5331 5326 5321 5317 5313 5309 5305 5301 5298 5295 5292 5290 5289 5290 5291 5293 5294 5294 5296 5298 5300 5302 5303 5305 5306 5308 5309 5310 5311 5312 5314 5315 5316
5373 5365 5358 5352 5345 5339 5334 5328 5322 5318 5314 5310 5305 5301 5297 5293 5289 5286 5282 5280 5277 5277 5277 5279 5282 5283 5283 5285 5287 5289 5291 5293 5294 5296 5298 5300 5301 5303 5304 5305 5307 5309
5359 5352 5346 5339 5333 5327 5322 5317 5311 5306 5303 5299 5294 5290 5286 5281 5278 5274 5270 5267 5265 5265 5266 5268 5271 5272 5273 5275 5277 5279 5281 5283 5284 5286 5288 5290 5292 5294 5296 5297 5299 5301
5345 5339 5332 5327 5321 5315 5310 5306 5301 5296 5292 5288 5284 5280 5275 5271 5267 5263 5259 5256 5254 5253 5255 5258 5261 5262 5263 5265 5267 5269 5271 5273 5275 5277 5278 5281 5283 5286 5287 5289 5291 5293
5333 5326 5320 5315 5310 5305 5299 5295 5290 5286 5282 5278 5274 5270 5266 5261 5257 5254 5249 5245 5243 5243 5245 5248 5250 5252 5254 5256 5257 5259 5261 5263 5266 5267 5269 5272 5275 5277 5279 5281 5283 5285
5321 5315 5309 5304 5299 5294 5290 5285 5280 5276 5272 5268 5264 5260 5256 5252 5249 5245 5241 5236 5234 5234 5236 5239 5241 5243 5245 5246 5247 5250 5252 5254 5256 5259 5261 5263 5266 5269 5271 5273 5275 5277
5310 5305 5299 5294 5289 5283 5279 5275 5270 5266 5262 5258 5254 5250 5247 5243 5240 5237 5234 5229 5227 5227 5228 5230 5232 5234 5235 5236 5238 5240 5243 5246 5248 5250 5253 5255 5258 5261 5263 5265 5267 5269
5301 5295 5290 5284 5279 5274 5269 5264 5260 5257 5252 5248 5244 5241 5237 5235 5232 5229 5226 5223 5220 5220 5221 5222 5223 5225 5226 5227 5230 5231 5234 5237 5240 5242 5244 5247 5250 5253 5255 5257 5259 5261
5290 5285 5279 5274 5268 5263 5258 5254 5250 5247 5243 5239 5235 5231 5228 5226 5224 5221 5219 5215 5213 5212 5213 5213 5215 5216 5217 5219 5221 5223 5225 5228 5232 5234 5236 5239 5242 5245 5247 5249 5251 5253
5278 5273 5268 5263 5258 5253 5248 5244 5239 5236 5234 5230 5226 5222 5220 5217 5215 5213 5210 5208 5205 5204 5204 5205 5207 5208 5208 5211 5213 5215 5216 5219 5223 5227 5229 5232 5234 5237 5239 5241 5243 5245
5266 5261 5256 5251 5246 5242 5238 5234 5229 5226 5223 5220 5217 5214 5211 5209 5206 5204 5202 5200 5197 5196 5196 5197 5199 5199 5200 5202 5205 5207 5208 5211 5215 5220 5222 5224 5226 5229 5231 5234 5236 5238
5255 5249 5245 5241 5236 5231 5228 5224 5220 5216 5213 5210 5208 5205 5203 5200 5198 5195 5193 5191 5189 5188 5188 5189 5190 5191 5192 5194 5197 5199 5201 5204 5209 5212 5215 5217 5219 5221 5223 5226 5228 5231
5245 5238 5234 5230 5226 5222 5218 5214 5211 5207 5204 5201 5198 5196 5194 5192 5189 5187 5184 5182 5181 5181 5180 5181 5182 5184 5185 5187 5189 5192 5194 5199 5203 5205 5207 5210 5212 5214 5216 5219 5222 5224
5234 5227 5222 5219 5216 5212 5208 5204 5202 5198 5195 5192 5189 5187 5185 5183 5181 5178 5176 5174 5174 5173 5173 5174 5175 5177 5178 5180 5182 5185 5188 5192 5196 5198 5200 5203 5205 5207 5209 5212 5215 5217
5222 5216 5211 5207 5204 5202 5198 5195 5192 5190 5187 5185 5182 5179 5177 5176 5173 5170 5167 5166 5166 5166 5166 5167 5168 5170 5172 5173 5176 5179 5182 5186 5189 5192 5194 5195 5198 5201 5203 5205 5208 5211
5212 5206 5201 5197 5193 5191 5189 5185 5183 5181 5179 5177 5174 5172 5170 5168 5165 5162 5160 5159 5158 5159 5159 5160 5162 5164 5165 5167 5170 5173 5176 5180 5183 5185 5187 5189 5191 5194 5197 5200 5202 5204